Orbital Elements at Epoch 2459200.5 (2020-Dec-17.0) TDB
Reference: JPL 18 (heliocentric ecliptic J2000)
Element | Value | Uncertainty (1-sigma) | Units |
e | .1680077745973745 | 6.3584e-08 | |
a | 2.722960857084752 | 4.0496e-08 | au |
q | 2.265482263170183 | 1.8145e-07 | au |
i | 4.108967895812563 | 6.8241e-06 | deg |
node | 235.219001948664 | 0.00010115 | deg |
peri | 84.73331445596939 | 0.00010315 | deg |
M | 254.4384964437073 | 2.4019e-05 | deg |
tp | 2459681.742075387879 (2022-Apr-12.24207539) | 0.00011429 | TDB |
period | 1641.196281817351 4.49 | 3.6612e-05 1.002e-07 | d yr |
n | .2193521908308007 | 4.8933e-09 | deg/d |
Q | 3.180439450999321 | 4.73e-08 | au |
|
| | Orbit Determination Parameters
Additional Information
|